Weather History for KHPN - August, 2013

Change the Weather History Date:

Friday, August 16, 2013

  Actual Average Record
Temperature  
Mean Temperature 67 °F -  
Max Temperature 78 °F 79 °F 93 °F (1997)
Min Temperature 57 °F 62 °F 53 °F (1979)
Cooling Degree Days 2    
Growing Degree Days 17 (Base 50)    
Moisture  
Dew Point 53 °F    
Average Humidity 65    
Maximum Humidity 90    
Minimum Humidity 36    
Precipitation  
Precipitation 0.00 in - - ()
Sea Level Pressure  
Sea Level Pressure 30.16 in    
Wind  
Wind Speed 2 mph (WNW)    
Max Wind Speed 7 mph    
Max Gust Speed -    
Visibility 10 miles    
Events      
Averages and records for this station are not official NWS values.
T = Trace of Precipitation, MM = Missing Value Source: NWS Daily Summary

Daily Weather History Graph

Daily Weather History Graph

Search for Another Location

Airport or City:

Trip Planner

Search our weather history database for the weather conditions in past years. The results will help you decide how hot, cold, wet, or windy it might be!

Date:

Astronomy

Aug. 16, 2013 Rise Set
Actual Time 6:05 AM EDT 7:51 PM EDT
Civil Twilight 5:36 AM EDT 8:21 PM EDT
Nautical Twilight 5:00 AM EDT 8:56 PM EDT
Astronomical Twilight 4:21 AM EDT 9:34 PM EDT
Moon 4:08 PM EDT (8/16) 1:04 AM EDT (8/16)
Length of Visible Light 14h 44m
Length of Day
13h 45m
Waxing Gibbous, 74% of the Moon is Illuminated
Aug 16
Waxing Gibbous
Aug 20
Full
Aug 28
Last Quarter
Sep 5
New
Sep 12
First Quarter

Hourly Weather History & Observations

Time (EDT) Temp. Dew Point Humidity Pressure Visibility Wind Dir Wind Speed Gust Speed Precip Events Conditions
1:56 AM 59.0 °F 54.0 °F 83% 30.12 in 10.0 mi Calm Calm - N/A   Clear
2:56 AM 57.9 °F 54.0 °F 87% 30.12 in 10.0 mi Calm Calm - N/A   Clear
3:56 AM 57.9 °F 55.0 °F 90% 30.13 in 10.0 mi NW 4.6 mph - N/A   Clear
4:56 AM 57.9 °F 55.0 °F 90% 30.13 in 10.0 mi NW 4.6 mph - N/A   Clear
5:56 AM 57.9 °F 55.0 °F 90% 30.14 in 10.0 mi NW 4.6 mph - N/A   Scattered Clouds
6:56 AM 59.0 °F 55.0 °F 87% 30.14 in 10.0 mi NW 4.6 mph - N/A   Scattered Clouds
7:56 AM 64.0 °F 57.0 °F 78% 30.15 in 10.0 mi NW 4.6 mph - N/A   Partly Cloudy
8:56 AM 68.0 °F 55.9 °F 65% 30.16 in 10.0 mi NW 4.6 mph - N/A   Clear
9:56 AM 72.0 °F 52.0 °F 49% 30.16 in 10.0 mi Calm Calm - N/A   Clear
10:56 AM 73.9 °F 48.9 °F 41% 30.17 in 10.0 mi WNW 3.5 mph - N/A   Partly Cloudy
11:56 AM 75.9 °F 50.0 °F 40% 30.17 in 10.0 mi NNW 6.9 mph - N/A   Mostly Cloudy
12:56 PM 75.9 °F 46.9 °F 36% 30.16 in 10.0 mi NW 3.5 mph - N/A   Mostly Cloudy
1:56 PM 73.0 °F 50.0 °F 44% 30.16 in 10.0 mi WSW 3.5 mph - N/A   Partly Cloudy
2:56 PM 77.0 °F 51.1 °F 40% 30.15 in 10.0 mi Variable 4.6 mph - N/A   Scattered Clouds
3:56 PM 73.9 °F 53.1 °F 48% 30.14 in 10.0 mi Calm Calm - N/A   Mostly Cloudy
4:56 PM 75.9 °F 51.1 °F 42% 30.14 in 10.0 mi Calm Calm - N/A   Mostly Cloudy
5:56 PM 72.0 °F 57.0 °F 59% 30.15 in 10.0 mi Calm Calm - N/A   Scattered Clouds
6:56 PM 73.0 °F 53.1 °F 49% 30.15 in 10.0 mi South 4.6 mph - N/A   Partly Cloudy
7:56 PM 66.9 °F 55.9 °F 68% 30.17 in 10.0 mi Calm Calm - N/A   Partly Cloudy
8:56 PM 64.9 °F 55.0 °F 70% 30.18 in 10.0 mi Calm Calm - N/A   Clear
9:56 PM 63.0 °F 55.0 °F 75% 30.19 in 10.0 mi Calm Calm - N/A   Clear
10:56 PM 62.1 °F 55.0 °F 78% 30.20 in 10.0 mi Calm Calm - N/A   Clear
11:56 PM 60.1 °F 55.0 °F 83% 30.21 in 10.0 mi NW 3.5 mph - N/A   Clear